TimeWET,TemperatureF,Dew PointF,Humidity,Sea Level PressureIn,VisibilityMPH,Wind Direction,Wind SpeedMPH,Gust SpeedMPH,PrecipitationIn,Events,Conditions,WindDirDegrees,DateUTC
4:00 AM,64.4,62.6,94,30.06,5.0,NW,4.6,-,N/A,,Mostly Cloudy,320,2012-10-05 04:00:00
5:00 AM,64.4,62.6,94,30.09,3.1,Variable,2.3,-,N/A,,Overcast,0,2012-10-05 05:00:00
6:00 AM,65,63,89,30.05,3,WSW,2.3,,,,Overcast,240,2012-10-05 06:00:00
6:00 AM,64.4,62.6,94,30.09,3.1,Variable,2.3,-,N/A,,Overcast,0,2012-10-05 06:00:00
6:35 AM,64.4,62.6,94,30.09,2.5,Variable,2.3,-,N/A,,Overcast,0,2012-10-05 06:35:00
6:41 AM,64.4,62.6,94,30.09,2.5,Variable,2.3,-,N/A,,Overcast,0,2012-10-05 06:41:00
7:00 AM,64.4,60.8,88,30.09,2.5,South,4.6,-,N/A,,Overcast,180,2012-10-05 07:00:00
8:00 AM,68.0,60.8,78,30.12,2.5,SSW,6.9,-,N/A,,Overcast,200,2012-10-05 08:00:00
8:43 AM,71.6,57.2,60,30.12,5.0,NW,2.3,-,N/A,,Scattered Clouds,320,2012-10-05 08:43:00
9:00 AM,72,57,50,30.05,5,North,2.3,,,,Scattered Clouds,10,2012-10-05 09:00:00
9:00 AM,71.6,57.2,60,30.12,5.0,East,2.3,-,N/A,,Scattered Clouds,90,2012-10-05 09:00:00
10:00 AM,73.4,60.8,65,30.12,5.0,East,4.6,-,N/A,,Scattered Clouds,90,2012-10-05 10:00:00
11:00 AM,77.0,60.8,57,30.12,5.0,NE,9.2,-,N/A,,Scattered Clouds,40,2012-10-05 11:00:00
12:00 PM,77,60,45,30.02,5,ENE,3.5,,,,Scattered Clouds,60,2012-10-05 12:00:00
12:00 PM,77.0,59.0,54,30.12,5.0,ENE,3.5,-,N/A,,Scattered Clouds,60,2012-10-05 12:00:00
1:00 PM,77.0,59.0,54,30.09,5.0,ENE,4.6,-,N/A,,Scattered Clouds,60,2012-10-05 13:00:00
2:00 PM,77.0,66.2,69,30.09,5.0,NNE,9.2,-,N/A,,Mostly Cloudy,20,2012-10-05 14:00:00
3:00 PM,78,58,40,30.00,5,Calm,Calm,,,,Scattered Clouds,,2012-10-05 15:00:00
3:00 PM,77.0,59.0,54,30.09,5.0,North,3.5,-,N/A,,Mostly Cloudy,350,2012-10-05 15:00:00
4:00 PM,77.0,57.2,50,30.09,5.0,WNW,6.9,-,N/A,,Mostly Cloudy,300,2012-10-05 16:00:00
5:00 PM,75.2,57.2,53,30.12,5.0,NNW,8.1,-,N/A,,Mostly Cloudy,330,2012-10-05 17:00:00
6:00 PM,74,57,45,30.04,5,North,5.8,,,,Scattered Clouds,350,2012-10-05 18:00:00
6:00 PM,73.4,57.2,57,30.12,5.0,NNW,6.9,-,N/A,,Mostly Cloudy,340,2012-10-05 18:00:00
7:00 PM,71.6,59.0,64,30.15,5.0,Calm,Calm,-,N/A,,Mostly Cloudy,0,2012-10-05 19:00:00
8:00 PM,69.8,59.0,68,30.15,-9999.0,NW,3.5,-,N/A,,Clear,320,2012-10-05 20:00:00
9:00 PM,67,58,67,30.11,6,SW,2.3,,,,Partly Cloudy,220,2012-10-05 21:00:00
9:00 PM,68.0,59.0,73,30.18,-9999.0,SW,2.3,-,N/A,,Clear,220,2012-10-05 21:00:00
10:00 PM,66.2,59.0,78,30.18,-9999.0,SSE,2.3,-,N/A,,Clear,160,2012-10-05 22:00:00
11:00 PM,64.4,59.0,83,30.18,-9999.0,NNE,2.3,-,N/A,,Clear,30,2012-10-05 23:00:00